{"data":{"norad_id":52703,"intl_designator":"2022-053AZ","name":"STARLINK-4020","alt_names":[],"object_type":"PAYLOAD","status":"ACTIVE","operator":null,"country":"US","launch_date":"2022-05-18","launch_site_code":"AFETR","launch_vehicle":null,"mission":null,"orbit_class":"UNKNOWN","rcs_meters":null,"size_class":null,"mass_kg":null,"dimensions":null,"purposes":["comms"],"wikipedia_slug":null,"has_3d_model":false,"image_url":null,"decayed_at":null,"tle_current":{"epoch":"2026-09-19T19:16:19.093728Z","epoch_age_seconds":126746,"freshness":"FRESH","line1":"1 52703U 22053AZ  26262.80299877  .00000818  00000+0  34355-4 0  9997","line2":"2 52703  53.1609 329.2204 0001108  82.1037 278.0091 15.35404167239520","mean_motion":15.35404167,"eccentricity":0.0001108,"inclination_deg":53.1609,"raan_deg":329.2204,"arg_perigee_deg":82.1037,"mean_anomaly_deg":278.0091,"bstar":3.4355e-5,"rev_number":23952,"period_min":93.786380872835,"perigee_km":458.96263642243,"apogee_km":460.47790559368,"semimajor_km":6837.8572710081,"source":"CELESTRAK","updated_at":"2026-09-20T09:00:40.109020Z"}}}